カタログに戻る

STARLINK-35691

運用中通信VLEO
NORAD 66404·PAYLOAD·🇺🇸 United States

打ち上げ Nov 8, 2025 から Cape Canaveral Space Force Station

Loading…

次のパス (今後24時間)

TLE

最新Source: CelesTrak SupGP

元期: Sep 14, 2026, 23:03 UTC

1 66404C 25257AA  26257.96090278  .00022238  00000+0  65715-3 0  2574
2 66404  53.1588  53.6164 0001188  80.9053 212.6437 15.34373776    12

AllMySatでSTARLINK-35691をリアルタイム追跡

Download on the App Store